TEVEL2-7

Last updated on Tue Aug 25 2026 00:03:14 GMT+0000 (Coordinated Universal Time)

1 63238U 25052AE 26235.51388802 .00015154 00000+0 47057-3 0 9990 2 63238 97.3840 130.6525 0003640 257.9226 102.1608 15.33456949 80334
UTC large
Height (km)
Speed (km/s)
/
Latitude / Longitude
Inclination (degrees)
Orbital Period (minutes)
Azimuth
Elevation
Range (km)
Doppler Factor

Next 0 passes for location: London (51.5072 / 0.1276)

No passes found over London.
TEVEL2-7